Location: Ljubljana
(46.0550°N, 14.5140°E)
Time: 10:14:15
(UTC+02:00)

Envisat - Visible Passes

Search period start: 23 June 2018 00:00
Search period end: 03 July 2018 00:00
Orbit: 764 x 766 km, 98.2° (Epoch: 22 June)

Date Brightness Start Highest point End Pass type
(mag) Time Alt. Az. Time Alt. Az. Time Alt. Az.
24 Jun 5.6 21:34:42 10° SW 21:37:57 17° W 21:41:13 10° NW visible
29 Jun 5.8 21:50:34 10° WSW 21:52:34 12° W 21:54:35 10° WNW visible
02 Jul 5.6 21:38:17 10° SW 21:41:15 15° W 21:44:15 10° NW visible
